Location: Ellingshausen
(50.5460°N, 10.4723°E)
Time: 00:33:55
(UTC+00:00)

BREEZE-M DEB (TANK) - Pass Details

Date: 18 January 2026
Orbit: 359 x 16119 km, 49.4° (Epoch: 18 February)

Event Time Altitude Azimuth Distance (km) Brightness Sun altitude
Exits shadow 04:20:46 47° 255° (WSW) 1,868 4.5 -26.4°
Maximum altitude 04:23:40 85° 172° (S) 1,963 4.9 -25.9°
Drops below altitude 10° 04:56:57 10° 91° (E) 12,123 10.3 -20.6°
Sets 05:18:02 0° 95° (E) 16,582 11.5 -17.3°
